This demonstration page uses our WeatherBlox Daily Observations layout. Learn more.

Left ArrowRight Arrow

39.51506, -84.39828

Hourly Observations for December 5, 2021

Temp ( °F °C ) Dew Point ( °F °C ) Humidity (%) Winds ( mph kmh ) Pressure ( in mb ) Visibility ( mi km ) Precip ( " mm )
12:15 am 00:15 Clear 28 -2 27 -2.9 94 94 NE 3 6 30.33 1027 10 16 N/A
12:35 am 00:35 Clear 29 -1.5 27 -2.8 91 91 NE 5 7 30.33 1027 10 16 N/A
12:55 am 00:55 Clear 29 -1.7 27 -3 91 91 NE 5 7 30.31 1026 10 16 N/A
1:15 am 01:15 Clear 28 -2.2 26 -3.1 94 94 ENE 3 6 30.30 1026 10 16 N/A
1:35 am 01:35 Clear 28 -2.4 26 -3.5 92 92 NE 3 6 30.30 1026 10 16 N/A
1:55 am 01:55 Clear 28 -2.4 25 -4 89 89 N N/A 30.29 1026 10 16 N/A
2:15 am 02:15 Clear 29 -1.4 27 -2.8 90 90 N N/A 30.30 1026 10 16 N/A
2:35 am 02:35 Clear 28 -2.3 26 -3.5 92 92 N N/A 30.30 1026 10 16 N/A
2:55 am 02:55 Clear 28 -2.2 27 -2.9 95 95 N N/A 30.30 1026 10 16 N/A
3:15 am 03:15 Clear 27 -2.8 25 -3.8 93 93 N N/A 30.30 1026 10 16 N/A
3:35 am 03:35 Clear 27 -3 26 -3.6 96 96 NNE 3 6 30.29 1026 7 11 N/A
3:55 am 03:55 Clear 26 -3.4 24 -4.4 93 93 NNE 5 7 30.29 1026 10 16 N/A
4:15 am 04:15 Clear 26 -3.1 25 -4.1 93 93 NE 3 6 30.28 1026 10 16 N/A
4:35 am 04:35 Clear 28 -2 26 -3.2 92 92 NNE 3 6 30.28 1025 10 16 N/A
4:55 am 04:55 Clear 29 -1.8 22 -5.3 77 77 NE 7 11 30.27 1025 10 16 N/A
5:15 am 05:15 Clear 29 -1.8 23 -5 79 79 NE 5 7 30.27 1025 10 16 N/A
5:35 am 05:35 Clear 29 -1.5 21 -6 72 72 ENE 6 9 30.27 1025 10 16 N/A
5:55 am 05:55 Clear 30 -0.9 20 -6.6 66 66 ENE 6 9 30.26 1025 10 16 N/A
6:15 am 06:15 Clear 31 -0.7 20 -6.8 64 64 ENE 5 7 30.26 1025 10 16 N/A
6:35 am 06:35 Clear 30 -1.1 19 -7.1 64 64 NE 5 7 30.26 1025 10 16 N/A
6:55 am 06:55 Clear 30 -1 19 -7.2 63 63 E 3 6 30.26 1025 10 16 N/A
7:15 am 07:15 Clear 31 -0.5 18 -7.6 59 59 E 5 7 30.26 1025 10 16 N/A
7:35 am 07:35 Clear 32 undefined 20 -6.8 61 61 ENE 6 9 30.25 1024 10 16 N/A
7:55 am 07:55 Partly Cloudy 31 -0.5 21 -5.9 67 67 E 7 11 30.24 1024 10 16 N/A
8:15 am 08:15 Mostly Cloudy 33 0.6 23 -5 66 66 E 7 11 30.22 1023 10 16 N/A
8:35 am 08:35 Cloudy 34 1.2 24 -4.7 65 65 E 6 9 30.21 1023 10 16 N/A
8:55 am 08:55 Cloudy 35 1.7 23 -5 61 61 ESE 8 13 30.21 1023 10 16 N/A
9:15 am 09:15 Cloudy 36 2.2 24 -4.3 63 63 ESE 6 9 30.20 1023 10 16 N/A
9:35 am 09:35 Cloudy 37 3 24 -4.4 59 59 E 7 11 30.18 1022 10 16 N/A
9:55 am 09:55 Cloudy 39 3.8 24 -4.5 55 55 ESE 10 17 30.17 1022 10 16 N/A
10:15 am 10:15 Cloudy 40 4.5 24 -4.5 52 52 ESE 7 11 30.15 1021 10 16 N/A
10:35 am 10:35 Mostly Cloudy 42 5.7 25 -4.1 50 50 SE 8 13 30.13 1020 10 16 N/A
10:55 am 10:55 Partly Cloudy 43 6.2 24 -4.7 46 46 SSE 9 15 30.12 1020 10 16 N/A
11:15 am 11:15 Mostly Cloudy 44 6.8 25 -4.1 46 46 S 9 15 30.10 1019 10 16 N/A
11:35 am 11:35 Cloudy 45 7.1 25 -3.9 46 46 S 6 9 30.08 1019 10 16 N/A
11:55 am 11:55 Cloudy 46 7.6 26 -3.5 46 46 S 14 22 30.06 1018 10 16 N/A
12:15 pm 12:15 Cloudy 46 7.8 26 -3.5 45 45 SSE 10 17 30.03 1017 10 16 N/A
12:35 pm 12:35 Cloudy 47 8.6 27 -2.8 45 45 SSE 12 19 30.00 1016 10 16 N/A
12:55 pm 12:55 Cloudy 48 9.1 28 -2 46 46 S 10 17 29.98 1015 10 16 N/A
1:15 pm 13:15 Cloudy 49 9.2 29 -1.5 47 47 S 9 15 29.96 1015 10 16 N/A
1:35 pm 13:35 Cloudy 50 9.8 31 -0.5 49 49 S 9 15 29.95 1014 10 16 N/A
1:55 pm 13:55 Cloudy 51 10.8 33 0.3 49 49 SSW 10 17 29.94 1014 10 16 N/A
2:15 pm 14:15 Mostly Cloudy 51 10.8 34 1 51 51 S 8 13 29.92 1013 10 16 N/A
2:35 pm 14:35 Cloudy 52 11 35 1.6 53 53 S 13 20 29.90 1012 10 16 N/A
2:55 pm 14:55 Partly Cloudy 54 12.3 36 2 50 50 SSW 12 19 29.88 1012 10 16 N/A
3:15 pm 15:15 Partly Cloudy 55 12.9 37 3 51 51 SSW 13 20 29.87 1012 10 16 N/A
3:35 pm 15:35 Mostly Cloudy 55 12.8 38 3.5 53 53 SSW 12 19 29.86 1011 10 16 N/A
3:55 pm 15:55 Mostly Cloudy 55 12.8 39 3.8 55 55 SSW 10 17 29.85 1011 10 16 N/A
4:15 pm 16:15 Cloudy 56 13.2 39 3.9 54 54 SSW 10 17 29.84 1011 10 16 N/A
4:35 pm 16:35 Cloudy 56 13.2 40 4.3 55 55 S 8 13 29.83 1010 10 16 N/A
4:55 pm 16:55 Cloudy 56 13.3 40 4.4 55 55 SSW 8 13 29.82 1010 10 16 N/A
5:15 pm 17:15 Cloudy with Rain 54 12.4 44 6.9 69 69 SSW 7 11 29.82 1010 5 8 0.01 0.25
5:35 pm 17:35 Cloudy with Light Rain 52 11.3 47 8.2 81 81 SSW 5 7 29.82 1010 10 16 0.01 0.25
5:55 pm 17:55 Mostly Cloudy 53 11.4 47 8.4 82 82 SW 7 11 29.81 1009 10 16 0.01 0.25
6:15 pm 18:15 Cloudy 51 10.7 48 8.9 89 89 SW 7 11 29.81 1009 10 16 N/A
6:35 pm 18:35 Cloudy with Light Rain 52 11.1 49 9.6 91 91 SSW 7 11 29.80 1009 10 16 N/A
6:55 pm 18:55 Mostly Cloudy 55 12.7 51 10.6 87 87 SW 10 17 29.78 1009 10 16 N/A
7:15 pm 19:15 Cloudy with Heavy Rain 57 13.8 53 11.6 87 87 SW 13 20 29.78 1008 10 16 N/A
7:35 pm 19:35 Cloudy 57 13.9 54 12 88 88 SSW 14 22 29.78 1008 10 16 N/A
7:55 pm 19:55 Cloudy 58 14.4 53 11.9 85 85 SW 17 28 29.77 1008 10 16 N/A
8:15 pm 20:15 Cloudy 58 14.6 54 12.3 86 86 SW 16 26 29.77 1008 7 11 0.01 0.25
8:35 pm 20:35 Cloudy 58 14.3 55 12.8 91 91 SW 18 30 29.77 1008 10 16 0.01 0.25
8:55 pm 20:55 Cloudy 58 14.6 56 13.1 91 91 SW 14 22 29.76 1008 10 16 0.01 0.25
9:15 pm 21:15 Cloudy 59 14.9 56 13.2 90 90 SW 14 22 29.77 1008 10 16 N/A
9:35 pm 21:35 Cloudy 59 15.1 56 13.4 90 90 SW 16 26 29.77 1008 10 16 N/A
9:55 pm 21:55 Cloudy 60 15.3 56 13.5 89 89 SW 16 26 29.77 1008 10 16 N/A
10:15 pm 22:15 Cloudy 60 15.7 56 13.6 87 87 SW 14 22 29.76 1008 10 16 N/A
10:35 pm 22:35 Cloudy 60 15.8 57 13.7 87 87 SW 14 22 29.76 1008 10 16 N/A
10:55 pm 22:55 Cloudy 61 15.9 57 13.9 88 88 SW 14 22 29.75 1008 10 16 N/A
11:15 pm 23:15 Cloudy 60 15.6 57 13.9 90 90 SW 10 17 29.75 1007 10 16 N/A
11:35 pm 23:35 Cloudy 60 15.5 57 14 91 91 SSW 14 22 29.74 1007 10 16 N/A
11:55 pm 23:55 Cloudy 60 15.4 57 14.1 92 92 SSW 12 19 29.72 1006 10 16 N/A

Powered by AerisWeather